Reno, NV

2:24 PM PST on November 17, 2019 (GMT -0800)
Reno-Tahoe International

Weather History for KRNO - October, 2019

Change the Weather History Date:

Wednesday, October 23, 2019

  Actual Average Record
Temperature  
Mean Temperature 54 °F 51 °F  
Max Temperature 69 °F 66 °F 83 °F (1937)
Min Temperature 39 °F 37 °F 16 °F (1961)
Degree Days  
Heating Degree Days 11 14  
Month to date heating degree days 275 224  
Since 1 July heating degree days 394 314  
Cooling Degree Days 0 0  
Month to date cooling degree days 0 4  
Year to date cooling degree days 1107 838  
Growing Degree Days 4 (Base 50)    
Moisture  
Dew Point 23 °F    
Average Humidity 36    
Maximum Humidity 65    
Minimum Humidity 10    
Precipitation  
Precipitation 0.00 in 0.02 in 0.46 in (1956)
Month to date precipitation T 0.37  
Year to date precipitation 9.05 5.41  
Snow  
Snow 0.00 in 0.00 in 1.00 in (1956)
Month to date snowfall 0.0 0.2  
Since 1 July snowfall T 0.3  
Since 1 September snowfall T 0.3  
Snow Depth 0.00 in    
Sea Level Pressure  
Sea Level Pressure 30.23 in    
Wind  
Wind Speed 3 mph ()    
Max Wind Speed 15 mph    
Max Gust Speed 21 mph    
Visibility 10.0 miles    
Events      
T = Trace of Precipitation, MM = Missing Value Source: Averaged Metar Reports

Daily Weather History Graph

Daily Weather History Graph

Search for Another Location

Airport or City:

Astronomy

Oct. 23, 2019 Rise Set
Actual Time 7:17 AM PDT 6:08 PM PDT
Civil Twilight 6:49 AM PDT 6:36 PM PDT
Nautical Twilight 6:18 AM PDT 7:07 PM PDT
Astronomical Twilight 5:47 AM PDT 7:38 PM PDT
Moon 1:43 AM PDT (10/23) 4:00 PM PDT (10/23)
Length of Visible Light 11h 46m
Length of Day
10h 51m
Waning Crescent, 25% of the Moon is Illuminated
Oct 23
Waning Crescent
Oct 27
New
Nov 4
First Quarter
Nov 12
Full
Nov 19
Last Quarter

Hourly Weather History & Observations

Time (PDT) Temp. Windchill Dew Point Humidity Pressure Visibility Wind Dir Wind Speed Gust Speed Precip Events Conditions
12:55 AM 48.9 °F - 28.9 °F 46% 30.21 in 10.0 mi Calm Calm - N/A   Clear
1:55 AM 45.0 °F - 30.0 °F 56% 30.19 in 10.0 mi Calm Calm - N/A   Clear
2:55 AM 45.0 °F - 28.0 °F 52% 30.20 in 10.0 mi Calm Calm - N/A   Clear
3:55 AM 45.0 °F - 30.0 °F 56% 30.21 in 10.0 mi Calm Calm - N/A   Clear
4:55 AM 43.0 °F - 30.0 °F 60% 30.20 in 10.0 mi Calm Calm - N/A   Clear
5:55 AM 42.1 °F - 30.0 °F 62% 30.20 in 10.0 mi Calm Calm - N/A   Clear
6:55 AM 41.0 °F - 30.0 °F 65% 30.24 in 10.0 mi Calm Calm - N/A   Partly Cloudy
7:55 AM 39.9 °F 37.8 °F 28.9 °F 65% 30.25 in 10.0 mi South 3.5 mph - N/A   Partly Cloudy
8:55 AM 46.9 °F - 30.9 °F 54% 30.26 in 10.0 mi Calm Calm - N/A   Scattered Clouds
9:55 AM 53.1 °F - 30.9 °F 43% 30.25 in 10.0 mi Calm Calm - N/A   Partly Cloudy
10:55 AM 59.0 °F - 30.0 °F 33% 30.25 in 10.0 mi Calm Calm - N/A   Scattered Clouds
11:55 AM 64.0 °F - 23.0 °F 21% 30.23 in 10.0 mi East 12.7 mph - N/A   Mostly Cloudy
12:55 PM 64.9 °F - 24.1 °F 21% 30.22 in 10.0 mi East 12.7 mph - N/A   Mostly Cloudy
1:55 PM 66.9 °F - 23.0 °F 19% 30.20 in 10.0 mi East 12.7 mph - N/A   Scattered Clouds
2:55 PM 68.0 °F - 19.9 °F 16% 30.18 in 10.0 mi ENE 9.2 mph - N/A   Mostly Cloudy
3:55 PM 66.9 °F - 12.9 °F 12% 30.19 in 10.0 mi ENE 13.8 mph 20.7 mph N/A   Mostly Cloudy
4:55 PM 66.9 °F - 9.0 °F 10% 30.19 in 10.0 mi East 11.5 mph - N/A   Scattered Clouds
5:55 PM 64.0 °F - 9.0 °F 12% 30.20 in 10.0 mi East 8.1 mph - N/A   Partly Cloudy
6:55 PM 60.1 °F - 14.0 °F 16% 30.22 in 10.0 mi ESE 4.6 mph - N/A   Partly Cloudy
7:55 PM 57.9 °F - 14.0 °F 18% 30.25 in 10.0 mi Calm Calm - N/A   Clear
8:55 PM 48.9 °F - 14.0 °F 25% 30.28 in 10.0 mi South 4.6 mph - N/A   Clear
9:55 PM 46.0 °F 43.1 °F 17.1 °F 31% 30.27 in 10.0 mi South 5.8 mph - N/A   Clear
10:55 PM 46.9 °F - 18.0 °F 32% 30.27 in 10.0 mi SW 4.6 mph - N/A   Clear
11:55 PM 44.1 °F 41.5 °F 19.9 °F 38% 30.29 in 10.0 mi South 4.6 mph - N/A   Clear